Volver al catálogo

STARLINK-34761

ActivoComunicacionesSSO
NORAD 64954·PAYLOAD·🇺🇸 United States

Lanzado Jul 26, 2025 desde Vandenberg Space Force Base

Loading…

Próximos Pases (próximas 24 horas)

TLE

ActualizadoSource: CelesTrak SupGP

Época: Sep 14, 2026, 20:52 UTC

1 64954C 25158Y   26257.86993056  .00004163  00000+0  12926-3 0  2570
2 64954  97.2847 116.2188 0002003  84.9399 181.4370 15.33424476    15

Sigue STARLINK-34761 en tiempo real con AllMySat

Download on the App Store